| time (UTC) | temp F | wind direction | speed MPH | gust MPH | rain 1hr in | rain 24hr in | rain mn in | humidity % | barometer mb |
| 20260906065404 | 66 | 146 | 1.0 | 2.0 | 0.00 | 0.00 | 0.00 | 52 | 1006.6 |
| 20260906064904 | 66 | 146 | 0.0 | 3.0 | 0.00 | 0.00 | 0.00 | 52 | 1006.6 |
| 20260906064404 | 66 | 146 | 0.0 | 3.0 | 0.00 | 0.00 | 0.00 | 52 | 1006.7 |
| 20260906063905 | 66 | 146 | 1.0 | 3.0 | 0.00 | 0.00 | 0.00 | 53 | 1006.6 |
| 20260906063404 | 65 | 148 | 1.0 | 3.0 | 0.00 | 0.00 | 0.00 | 53 | 1006.7 |
| 20260906062904 | 65 | 141 | 1.0 | 3.0 | 0.00 | 0.00 | 0.00 | 54 | 1006.6 |
| 20260906061404 | 65 | 138 | 0.0 | 1.0 | 0.00 | 0.00 | 0.00 | 53 | 1006.4 |
| 20260906060404 | 66 | 138 | 0.0 | 0.0 | 0.00 | 0.00 | 0.00 | 55 | 1006.4 |
| 20260906055905 | 66 | 138 | 0.0 | 0.0 | 0.00 | 0.00 | 0.00 | 55 | 1006.4 |
| 20260906055404 | 66 | 138 | 0.0 | 0.0 | 0.00 | 0.00 | 0.00 | 54 | 1006.3 |
| 20260906054905 | 67 | 138 | 0.0 | 0.0 | 0.00 | 0.00 | 0.00 | 54 | 1006.3 |
| 20260906053904 | 68 | 138 | 0.0 | 2.0 | 0.00 | 0.00 | 0.00 | 52 | 1006.3 |
| 20260906052905 | 69 | 138 | 0.0 | 2.0 | 0.00 | 0.00 | 0.00 | 49 | 1006.2 |
| 20260906051904 | 69 | 138 | 0.0 | 2.0 | 0.00 | 0.00 | 0.00 | 47 | 1006.3 |
| 20260906051404 | 70 | 138 | 0.0 | 2.0 | 0.00 | 0.00 | 0.00 | 48 | 1006.3 |
| 20260906050904 | 70 | 138 | 1.0 | 3.0 | 0.00 | 0.00 | 0.00 | 47 | 1006.3 |
| 20260906045404 | 70 | 143 | 2.0 | 3.0 | 0.00 | 0.00 | 0.00 | 46 | 1006.3 |
| 20260906044904 | 70 | 145 | 1.0 | 3.0 | 0.00 | 0.00 | 0.00 | 47 | 1006.3 |
| 20260906043404 | 71 | 146 | 1.0 | 2.0 | 0.00 | 0.00 | 0.00 | 45 | 1006.4 |
| 20260906042904 | 72 | 146 | 0.0 | 1.0 | 0.00 | 0.00 | 0.00 | 44 | 1006.4 |
| 20260906042404 | 73 | 146 | 0.0 | 1.0 | 0.00 | 0.00 | 0.00 | 44 | 1006.4 |
| 20260906040904 | 74 | 146 | 0.0 | 2.0 | 0.00 | 0.00 | 0.00 | 40 | 1006.5 |
| 20260906040404 | 74 | 146 | 0.0 | 3.0 | 0.00 | 0.00 | 0.00 | 39 | 1006.5 |
| 20260906035904 | 75 | 145 | 1.0 | 3.0 | 0.00 | 0.00 | 0.00 | 38 | 1006.4 |
| 20260906035404 | 75 | 143 | 2.0 | 5.0 | 0.00 | 0.00 | 0.00 | 37 | 1006.3 |
| 20260906034404 | 75 | 149 | 2.0 | 5.0 | 0.00 | 0.00 | 0.00 | 36 | 1006.0 |
| 20260906032904 | 75 | 146 | 2.0 | 6.0 | 0.00 | 0.00 | 0.00 | 35 | 1005.8 |
| 20260906031405 | 75 | 50 | 2.0 | 5.0 | 0.00 | 0.00 | 0.00 | 35 | 1005.9 |
| 20260906030904 | 75 | 115 | 2.0 | 5.0 | 0.00 | 0.00 | 0.00 | 36 | 1005.8 |
| 20260906030405 | 74 | 154 | 2.0 | 5.0 | 0.00 | 0.00 | 0.00 | 37 | 1005.8 |
| 20260906025905 | 73 | 38 | 1.0 | 3.0 | 0.00 | 0.00 | 0.00 | 38 | 1005.7 |
| 20260906025404 | 73 | 80 | 0.0 | 3.0 | 0.00 | 0.00 | 0.00 | 39 | 1005.5 |
| 20260906024904 | 73 | 77 | 1.0 | 2.0 | 0.00 | 0.00 | 0.00 | 40 | 1005.3 |
| 20260906024404 | 73 | 121 | 1.0 | 2.0 | 0.00 | 0.00 | 0.00 | 42 | 1005.2 |
| 20260906023904 | 73 | 117 | 0.0 | 1.0 | 0.00 | 0.00 | 0.00 | 41 | 1005.1 |
| 20260906023404 | 74 | 101 | 0.0 | 2.0 | 0.00 | 0.00 | 0.00 | 42 | 1005.0 |
| 20260906021404 | 76 | 51 | 1.0 | 3.0 | 0.00 | 0.00 | 0.00 | 37 | 1004.9 |
| 20260906020903 | 76 | 49 | 0.0 | 3.0 | 0.00 | 0.00 | 0.00 | 37 | 1004.9 |
| 20260906020404 | 76 | 48 | 2.0 | 3.0 | 0.00 | 0.00 | 0.00 | 35 | 1004.8 |
| 20260906015904 | 77 | 219 | 0.0 | 2.0 | 0.00 | 0.00 | 0.00 | 37 | 1004.8 |
| 20260906014404 | 79 | 219 | 1.0 | 2.0 | 0.00 | 0.00 | 0.00 | 35 | 1004.5 |
| 20260906012904 | 80 | 212 | 1.0 | 3.0 | 0.00 | 0.00 | 0.00 | 36 | 1004.4 |
| 20260906011904 | 80 | 115 | 0.0 | 1.0 | 0.00 | 0.00 | 0.00 | 35 | 1004.4 |
| 20260906011404 | 81 | 115 | 0.0 | 3.0 | 0.00 | 0.00 | 0.00 | 36 | 1004.4 |
| 20260906010904 | 82 | 115 | 0.0 | 3.0 | 0.00 | 0.00 | 0.00 | 36 | 1004.4 |
| 20260906010404 | 82 | 102 | 0.0 | 3.0 | 0.00 | 0.00 | 0.00 | 35 | 1004.4 |
| 20260906005904 | 83 | 103 | 1.0 | 3.0 | 0.00 | 0.00 | 0.00 | 34 | 1004.4 |
| 20260906004904 | 84 | 81 | 0.0 | 2.0 | 0.00 | 0.00 | 0.00 | 32 | 1004.3 |
| 20260906003904 | 84 | 40 | 2.0 | 5.0 | 0.00 | 0.00 | 0.00 | 30 | 1004.2 |
| 20260906003404 | 85 | 312 | 0.0 | 2.0 | 0.00 | 0.00 | 0.00 | 32 | 1004.2 |
| 20260906002904 | 85 | 312 | 1.0 | 3.0 | 0.00 | 0.00 | 0.00 | 32 | 1004.2 |
| 20260906002404 | 85 | 55 | 1.0 | 3.0 | 0.00 | 0.00 | 0.00 | 29 | 1004.2 |
| 20260906001404 | 86 | 254 | 1.0 | 3.0 | 0.00 | 0.00 | 0.00 | 30 | 1004.4 |
| 20260906000404 | 86 | 38 | 1.0 | 3.0 | 0.00 | 0.00 | 0.00 | 30 | 1004.3 |
| 20260905235904 | 86 | 53 | 1.0 | 3.0 | 0.00 | 0.00 | 0.00 | 30 | 1004.3 |
| 20260905234904 | 86 | 81 | 0.0 | 3.0 | 0.00 | 0.00 | 0.00 | 30 | 1004.3 |
| 20260905234404 | 86 | 246 | 1.0 | 3.0 | 0.00 | 0.00 | 0.00 | 30 | 1004.2 |
| 20260905233904 | 86 | 245 | 2.0 | 3.0 | 0.00 | 0.00 | 0.00 | 31 | 1004.2 |
| 20260905233404 | 86 | 239 | 1.0 | 3.0 | 0.00 | 0.00 | 0.00 | 31 | 1004.3 |
| 20260905232904 | 86 | 248 | 1.0 | 3.0 | 0.00 | 0.00 | 0.00 | 31 | 1004.3 |
| 20260905232404 | 86 | 231 | 1.0 | 3.0 | 0.00 | 0.00 | 0.00 | 30 | 1004.2 |
| 20260905231404 | 87 | 213 | 0.0 | 5.0 | 0.00 | 0.00 | 0.00 | 31 | 1004.2 |
| 20260905225904 | 87 | 287 | 1.0 | 5.0 | 0.00 | 0.00 | 0.00 | 30 | 1004.2 |
| 20260905224904 | 89 | 244 | 3.0 | 7.0 | 0.00 | 0.00 | 0.00 | 28 | 1004.3 |
| 20260905224405 | 89 | 321 | 2.0 | 5.0 | 0.00 | 0.00 | 0.00 | 29 | 1004.1 |
| 20260905221904 | 88 | 262 | 1.0 | 3.0 | 0.00 | 0.00 | 0.00 | 31 | 1004.4 |
| 20260905221404 | 88 | 274 | 2.0 | 3.0 | 0.00 | 0.00 | 0.00 | 31 | 1004.4 |
| 20260905220904 | 88 | 205 | 1.0 | 5.0 | 0.00 | 0.00 | 0.00 | 32 | 1004.6 |
| 20260905220404 | 87 | 271 | 2.0 | 5.0 | 0.00 | 0.00 | 0.00 | 32 | 1004.5 |
| 20260905215904 | 87 | 23 | 2.0 | 6.0 | 0.00 | 0.00 | 0.00 | 32 | 1004.6 |
| 20260905214404 | 89 | 84 | 1.0 | 7.0 | 0.00 | 0.00 | 0.00 | 31 | 1004.6 |
| 20260905213905 | 89 | 28 | 2.0 | 7.0 | 0.00 | 0.00 | 0.00 | 31 | 1004.8 |
| 20260905213404 | 89 | 190 | 2.0 | 7.0 | 0.00 | 0.00 | 0.00 | 29 | 1004.8 |
| 20260905210404 | 86 | 304 | 2.0 | 5.0 | 0.00 | 0.00 | 0.00 | 30 | 1005.3 |
| 20260905205904 | 86 | 43 | 2.0 | 9.0 | 0.00 | 0.00 | 0.00 | 29 | 1005.2 |
| 20260905205404 | 87 | 237 | 2.0 | 9.0 | 0.00 | 0.00 | 0.00 | 30 | 1005.3 |
| 20260905204904 | 87 | 210 | 4.0 | 8.0 | 0.00 | 0.00 | 0.00 | 30 | 1005.5 |
| 20260905204404 | 87 | 216 | 3.0 | 8.0 | 0.00 | 0.00 | 0.00 | 30 | 1005.4 |
| 20260905203904 | 86 | 230 | 2.0 | 6.0 | 0.00 | 0.00 | 0.00 | 30 | 1005.6 |
| 20260905203404 | 86 | 102 | 1.0 | 5.0 | 0.00 | 0.00 | 0.00 | 31 | 1005.6 |
| 20260905202904 | 86 | 45 | 2.0 | 5.0 | 0.00 | 0.00 | 0.00 | 30 | 1005.7 |
| 20260905201903 | 87 | 155 | 3.0 | 7.0 | 0.00 | 0.00 | 0.00 | 29 | 1005.8 |
| 20260905200904 | 87 | 305 | 2.0 | 7.0 | 0.00 | 0.00 | 0.00 | 29 | 1005.9 |
| 20260905200404 | 87 | 177 | 2.0 | 6.0 | 0.00 | 0.00 | 0.00 | 32 | 1006.0 |
| 20260905195404 | 87 | 206 | 2.0 | 7.0 | 0.00 | 0.00 | 0.00 | 31 | 1006.2 |
| 20260905193904 | 86 | 325 | 1.0 | 3.0 | 0.00 | 0.00 | 0.00 | 33 | 1006.4 |
| 20260905193404 | 86 | 220 | 2.0 | 9.0 | 0.00 | 0.00 | 0.00 | 33 | 1006.3 |
| 20260905192904 | 86 | 236 | 2.0 | 9.0 | 0.00 | 0.00 | 0.00 | 32 | 1006.4 |
| 20260905192404 | 86 | 204 | 2.0 | 5.0 | 0.00 | 0.00 | 0.00 | 32 | 1006.6 |
| 20260905191904 | 85 | 173 | 2.0 | 5.0 | 0.00 | 0.00 | 0.00 | 32 | 1006.7 |
| 20260905191404 | 85 | 201 | 2.0 | 5.0 | 0.00 | 0.00 | 0.00 | 33 | 1006.9 |
| 20260905190904 | 84 | 341 | 1.0 | 3.0 | 0.00 | 0.00 | 0.00 | 35 | 1007.0 |
| 20260905190404 | 84 | 137 | 1.0 | 6.0 | 0.00 | 0.00 | 0.00 | 33 | 1007.1 |
| 20260905184403 | 84 | 282 | 2.0 | 9.0 | 0.00 | 0.00 | 0.00 | 32 | 1007.4 |
| 20260905183904 | 84 | 201 | 1.0 | 6.0 | 0.00 | 0.00 | 0.00 | 34 | 1007.4 |
| 20260905182904 | 84 | 62 | 2.0 | 6.0 | 0.00 | 0.00 | 0.00 | 35 | 1007.5 |
| 20260905181404 | 83 | 151 | 3.0 | 6.0 | 0.00 | 0.00 | 0.00 | 36 | 1007.8 |
| 20260905175404 | 80 | 304 | 2.0 | 7.0 | 0.00 | 0.00 | 0.00 | 40 | 1008.1 |
| 20260905174404 | 80 | 232 | 4.0 | 7.0 | 0.00 | 0.00 | 0.00 | 42 | 1008.2 |
| 20260905172904 | 79 | 166 | 2.0 | 8.0 | 0.00 | 0.00 | 0.00 | 43 | 1008.1 |
| 20260905170904 | 78 | 255 | 1.0 | 10.0 | 0.00 | 0.00 | 0.00 | 46 | 1008.2 |
| 20260905164404 | 77 | 187 | 2.0 | 7.0 | 0.00 | 0.00 | 0.00 | 48 | 1008.3 |
| 20260905163904 | 76 | 203 | 2.0 | 7.0 | 0.00 | 0.00 | 0.00 | 48 | 1008.3 |
| 20260905163404 | 76 | 273 | 2.0 | 10.0 | 0.00 | 0.00 | 0.00 | 49 | 1008.3 |
| 20260905162904 | 76 | 39 | 3.0 | 10.0 | 0.00 | 0.00 | 0.00 | 51 | 1008.3 |
| 20260905162404 | 75 | 291 | 2.0 | 9.0 | 0.00 | 0.00 | 0.00 | 51 | 1008.3 |
| 20260905160903 | 75 | 241 | 2.0 | 7.0 | 0.00 | 0.00 | 0.00 | 51 | 1008.2 |
| 20260905160404 | 74 | 232 | 2.0 | 7.0 | 0.00 | 0.00 | 0.00 | 53 | 1008.2 |
| 20260905155904 | 74 | 251 | 2.0 | 5.0 | 0.00 | 0.00 | 0.00 | 55 | 1008.2 |
| 20260905155404 | 74 | 178 | 2.0 | 5.0 | 0.00 | 0.00 | 0.00 | 57 | 1008.2 |
| 20260905152904 | 71 | 10 | 2.0 | 3.0 | 0.00 | 0.00 | 0.00 | 61 | 1008.3 |
| 20260905151904 | 70 | 258 | 2.0 | 5.0 | 0.00 | 0.00 | 0.00 | 65 | 1008.3 |
| 20260905145904 | 68 | 305 | 1.0 | 3.0 | 0.00 | 0.00 | 0.00 | 69 | 1008.4 |
| 20260905145404 | 68 | 222 | 0.0 | 3.0 | 0.00 | 0.00 | 0.00 | 69 | 1008.6 |
| 20260905144904 | 67 | 303 | 1.0 | 3.0 | 0.00 | 0.00 | 0.00 | 70 | 1008.6 |
| 20260905144404 | 67 | 244 | 0.0 | 3.0 | 0.00 | 0.00 | 0.00 | 70 | 1008.7 |
| 20260905142904 | 65 | 180 | 0.0 | 2.0 | 0.00 | 0.00 | 0.00 | 74 | 1008.8 |
| 20260905141904 | 64 | 153 | 0.0 | 1.0 | 0.00 | 0.00 | 0.00 | 76 | 1008.8 |
| 20260905140904 | 62 | 153 | 0.0 | 3.0 | 0.00 | 0.00 | 0.00 | 78 | 1009.0 |
| 20260905135904 | 60 | 139 | 1.0 | 3.0 | 0.00 | 0.00 | 0.00 | 80 | 1008.8 |
| 20260905134904 | 58 | 139 | 1.0 | 2.0 | 0.00 | 0.00 | 0.00 | 82 | 1008.8 |
| 20260905132404 | 56 | 0 | 0.0 | 0.0 | 0.00 | 0.00 | 0.00 | 82 | 1008.8 |
| 20260905131904 | 56 | 0 | 0.0 | 0.0 | 0.00 | 0.00 | 0.00 | 82 | 1008.8 |
| 20260905131404 | 56 | 0 | 0.0 | 0.0 | 0.00 | 0.00 | 0.00 | 82 | 1008.6 |
| 20260905130904 | 56 | 0 | 0.0 | 0.0 | 0.00 | 0.00 | 0.00 | 81 | 1008.5 |
| 20260905125904 | 57 | 0 | 0.0 | 0.0 | 0.00 | 0.00 | 0.00 | 81 | 1008.2 |
| 20260905124904 | 57 | 0 | 0.0 | 0.0 | 0.00 | 0.00 | 0.00 | 80 | 1008.0 |
| 20260905123904 | 58 | 0 | 0.0 | 0.0 | 0.00 | 0.00 | 0.00 | 79 | 1007.8 |
| 20260905122904 | 58 | 0 | 0.0 | 0.0 | 0.00 | 0.00 | 0.00 | 79 | 1007.6 |
| 20260905122404 | 59 | 0 | 0.0 | 0.0 | 0.00 | 0.00 | 0.00 | 78 | 1007.6 |
| 20260905121904 | 59 | 0 | 0.0 | 0.0 | 0.00 | 0.00 | 0.00 | 78 | 1007.5 |
| 20260905120404 | 60 | 140 | 0.0 | 0.0 | 0.00 | 0.00 | 0.00 | 77 | 1007.4 |
| 20260905115904 | 60 | 139 | 0.0 | 0.0 | 0.00 | 0.00 | 0.00 | 76 | 1007.4 |
| 20260905113903 | 61 | 139 | 0.0 | 1.0 | 0.00 | 0.01 | 0.00 | 76 | 1007.3 |
| 20260905112404 | 61 | 139 | 0.0 | 2.0 | 0.00 | 0.01 | 0.00 | 77 | 1007.3 |
| 20260905110904 | 61 | 139 | 0.0 | 0.0 | 0.00 | 0.01 | 0.00 | 78 | 1007.3 |
| 20260905110403 | 61 | 139 | 0.0 | 0.0 | 0.00 | 0.01 | 0.00 | 78 | 1007.3 |
| 20260905104403 | 61 | 139 | 0.0 | 0.0 | 0.00 | 0.01 | 0.00 | 77 | 1007.2 |
| 20260905103904 | 61 | 138 | 0.0 | 0.0 | 0.00 | 0.01 | 0.00 | 77 | 1007.1 |
| 20260905103403 | 61 | 136 | 0.0 | 0.0 | 0.00 | 0.01 | 0.00 | 77 | 1007.2 |
| 20260905102903 | 61 | 86 | 0.0 | 0.0 | 0.00 | 0.01 | 0.00 | 77 | 1007.2 |
| 20260905101404 | 60 | 139 | 0.0 | 0.0 | 0.00 | 0.01 | 0.00 | 77 | 1007.1 |
| 20260905100904 | 60 | 129 | 0.0 | 0.0 | 0.00 | 0.01 | 0.00 | 77 | 1007.0 |
| 20260905095404 | 60 | 130 | 0.0 | 1.0 | 0.00 | 0.01 | 0.00 | 77 | 1006.8 |
| 20260905094403 | 60 | 132 | 0.0 | 0.0 | 0.00 | 0.01 | 0.00 | 77 | 1006.8 |
| 20260905092903 | 60 | 139 | 0.0 | 0.0 | 0.00 | 0.01 | 0.00 | 76 | 1006.8 |
| 20260905092404 | 60 | 90 | 0.0 | 0.0 | 0.00 | 0.01 | 0.00 | 75 | 1006.8 |
| 20260905091404 | 61 | 69 | 0.0 | 0.0 | 0.00 | 0.01 | 0.00 | 74 | 1007.0 |
| 20260905090403 | 61 | 139 | 0.0 | 0.0 | 0.00 | 0.01 | 0.00 | 73 | 1006.9 |
| 20260905085404 | 62 | 139 | 0.0 | 0.0 | 0.00 | 0.01 | 0.00 | 72 | 1006.8 |
| 20260905084904 | 62 | 139 | 0.0 | 0.0 | 0.00 | 0.01 | 0.00 | 72 | 1006.8 |
| 20260905081904 | 62 | 139 | 0.0 | 0.0 | 0.00 | 0.01 | 0.00 | 70 | 1006.8 |
| 20260905081404 | 63 | 139 | 0.0 | 0.0 | 0.00 | 0.01 | 0.00 | 70 | 1006.8 |
| 20260905080904 | 63 | 139 | 0.0 | 0.0 | 0.00 | 0.01 | 0.00 | 69 | 1006.9 |
| 20260905080403 | 63 | 139 | 0.0 | 0.0 | 0.00 | 0.01 | 0.00 | 68 | 1006.9 |
| 20260905075404 | 63 | 139 | 0.0 | 2.0 | 0.00 | 0.01 | 0.00 | 68 | 1006.9 |
| 20260905073404 | 64 | 139 | 0.0 | 1.0 | 0.00 | 0.01 | 0.00 | 66 | 1007.0 |
| 20260905072904 | 64 | 139 | 0.0 | 3.0 | 0.00 | 0.01 | 0.00 | 66 | 1007.0 |
| 20260905072404 | 64 | 139 | 1.0 | 3.0 | 0.00 | 0.01 | 0.00 | 66 | 1007.0 |
| 20260905071404 | 64 | 139 | 0.0 | 0.0 | 0.00 | 0.01 | 0.00 | 66 | 1007.0 |